Home > Weather > Fevik > Past weeks

Flag for Norway Weather for the Past 2 Weeks in Fevik, Norway

Now
34 °F

Fog.


Feels Like: 34 °F
Forecast: 41 / 46 °F
Wind: 2 mph from North

Location: Kristiansand / Kjevik

Current Time: Apr 29, 2016 at 2:56:14 AM

Latest Report: Apr 29, 2016 at 1:50 AM


Visibility: 0 mi

Pressure: 29.77 "Hg

Humidity: 93%

Dew Point: 32 °F

Location of FevikLocation

Historic Weather in Fevik — Graph

°F

Fevik Temperature Yesterday

Maximum temperature yesterday: 43 °F (at 7:20 PM)
Minimum temperature yesterday: 30 °F (at 3:50 AM)
Average temperature yesterday: 37 °F

High & Low Weather Summary for the Past Weeks

 TemperatureHumidityPressure
High59 °F (Apr 20, 3:50 PM)100% (Apr 14, 5:20 AM)30.27 "Hg (Apr 14, 5:20 AM)
Low30 °F (Apr 16, 5:50 AM)23% (Apr 22, 7:20 PM)29.30 "Hg (Apr 17, 1:50 AM)
Average43 °F67%29.77 "Hg
* Reported Apr 14 12:20 AM — Apr 29 12:50 AM, Fevik, Weather by CustomWeather, © 2016

Note: Actual official high and low records may vary slightly from our data, if they occured in-between our weather recording intervals... More about our weather records

Advertising

Fevik Weather History for the Previous 24 Hours

Scroll right to see more
 ConditionsComfort  
Time TempWeatherWind HumidityBarometerVisibility
12:50 AM
Fri, Apr 29
36 °FPassing clouds.No wind93%29.80 "HgN/A
12:20 AM36 °FOvercast.1 mph93%29.80 "HgN/A
11:50 PM
Thu, Apr 28
36 °FMostly cloudy.3 mph93%29.80 "HgN/A
11:20 PM36 °FPassing clouds.3 mph93%29.80 "HgN/A
10:50 PM39 °FPassing clouds.3 mph87%29.80 "HgN/A
10:20 PM37 °FPassing clouds.1 mph93%29.83 "HgN/A
9:50 PM39 °FBroken clouds.2 mph93%29.83 "HgN/A
9:20 PM39 °FScattered clouds.2 mph93%29.83 "HgN/A
8:50 PM41 °FScattered clouds.1 mph87%29.83 "HgN/A
8:20 PM41 °FScattered clouds.5 mph87%29.83 "HgN/A
7:50 PM43 °FScattered showers. Partly sunny.2 mph87%29.83 "HgN/A
7:20 PM43 °FScattered showers. Broken clouds.2 mph87%29.86 "HgN/A
6:50 PM41 °FScattered showers. Scattered clouds.3 mph93%29.86 "HgN/A
6:20 PM41 °FThunderstorms. Broken clouds.9 mph87%29.86 "HgN/A
5:50 PM41 °FThunderstorms. Scattered clouds.9 mph87%29.86 "HgN/A
5:20 PM41 °FDrizzle. Partly sunny.9 mph87%29.86 "HgN/A
4:50 PM41 °FPartly sunny.6 mph81%29.86 "HgN/A
4:20 PM39 °FLight rain. Partly sunny.12 mph87%29.86 "HgN/A
3:50 PM41 °FScattered showers. Broken clouds.12 mph87%29.86 "HgN/A
3:20 PM41 °FScattered showers. Partly sunny.12 mph81%29.86 "HgN/A
2:50 PM41 °FLight rain. Partly sunny.13 mph87%29.86 "HgN/A
2:20 PM41 °FScattered showers. Partly sunny.12 mph87%29.86 "HgN/A
1:50 PM41 °FScattered showers. Partly sunny.10 mph87%29.86 "HgN/A
1:20 PM37 °FSprinkles. Partly sunny.2 mph93%29.86 "HgN/A
12:50 PM36 °FSprinkles. Partly sunny.5 mph93%29.86 "HgN/A
12:20 PM36 °FSprinkles. Partly sunny.1 mph93%29.86 "HgN/A
11:50 AM36 °FSprinkles. Partly sunny.8 mph93%29.86 "Hg4 mi
11:20 AM36 °FSprinkles. Partly sunny.3 mph93%29.86 "HgN/A
10:50 AM34 °FSprinkles. Partly sunny.6 mph93%29.86 "Hg4 mi
10:20 AM37 °FSnow flurries. Broken clouds.13 mph87%29.86 "Hg2 mi
9:50 AM39 °FSprinkles. Partly sunny.12 mph81%29.83 "HgN/A
9:20 AM41 °FSprinkles. Scattered clouds.13 mph81%29.83 "HgN/A
7:50 AM36 °FSprinkles. Scattered clouds.9 mph87%29.83 "HgN/A
6:50 AM32 °FSunny.2 mph93%29.80 "Hg10 mi
5:50 AM30 °FClear.3 mph93%29.80 "Hg10 mi
5:20 AM30 °FPassing clouds.3 mph93%29.80 "HgN/A
4:50 AM30 °FPassing clouds.5 mph93%29.80 "HgN/A
4:20 AM30 °FPassing clouds.5 mph93%29.80 "HgN/A
3:50 AM30 °FPassing clouds.5 mph93%29.80 "HgN/A
3:20 AM32 °FPassing clouds.6 mph93%29.80 "HgN/A
2:50 AM32 °FPassing clouds.6 mph93%29.80 "HgN/A
Weather by CustomWeather, © 2016

See weather overviewHow to use our weather pages